Location: Siratepeler Tepesi
(39.1042°N, 32.0781°E)
Time: 11:20:02
(UTC+00:00)

Cosmos 2322 Rocket - Pass Details

Date: 11 April 2026
Orbit: 832 x 849 km, 71.0° (Epoch: 14 May)

Event Time Altitude Azimuth Distance (km) Brightness Sun altitude
Rises 16:59:10 0° 204° (SSW) 3,366 5.4 -7.2°
Reaches altitude 10° 17:01:36 10° 206° (SSW) 2,434 4.7 -7.7°
Maximum altitude 17:07:11 79° 293° (WNW) 850 2.4 -8.7°
Drops below altitude 10° 17:12:48 10° 20° (NNE) 2,446 4.6 -9.8°
Sets 17:15:15 0° 22° (NNE) 3,384 5.3 -10.2°
